📊 Raw Sensor Data
Showing records 44626 to 44650 of 85,039 total
| ID | Distance (ft) | Battery V | Battery A | Int Temp (°F) | Int Humid (%) | Ext Temp (°F) | Solar V | RSSI | SNR | Time Stamp |
|---|---|---|---|---|---|---|---|---|---|---|
| 40426 | 16.0 | 3.91 | -5 | 51 | 44 | 53 | 0.00 | -72 | 7 | 05/12/2025 10:15 PM |
| 40425 | 16.0 | 3.91 | -5 | 52 | 44 | 53 | 0.00 | -73 | 7 | 05/12/2025 10:00 PM |
| 40424 | 15.9 | 3.91 | -5 | 52 | 44 | 53 | 0.00 | -73 | 8 | 05/12/2025 09:45 PM |
| 40423 | 16.0 | 3.91 | -5 | 52 | 45 | 54 | 0.00 | -72 | 8 | 05/12/2025 09:30 PM |
| 40422 | 15.9 | 3.97 | -5 | 53 | 46 | 54 | 0.00 | -74 | 8 | 05/12/2025 09:15 PM |
| 40421 | 16.0 | 3.91 | -5 | 53 | 47 | 54 | 0.00 | -73 | 8 | 05/12/2025 09:00 PM |
| 40420 | 16.0 | 3.91 | -5 | 54 | 48 | 54 | 0.00 | -72 | 7 | 05/12/2025 08:45 PM |
| 40419 | 15.9 | 3.97 | -5 | 55 | 49 | 55 | 0.20 | -73 | 8 | 05/12/2025 08:30 PM |
| 40418 | 16.0 | 3.90 | -9 | 56 | 51 | 55 | 3.20 | -74 | 7 | 05/12/2025 08:15 PM |
| 40417 | 16.0 | 3.90 | -22 | 58 | 51 | 56 | 4.40 | -71 | 8 | 05/12/2025 08:00 PM |
| 40416 | 16.0 | 3.92 | 0 | 63 | 49 | 59 | 4.50 | -72 | 8 | 05/12/2025 07:45 PM |
| 40415 | 16.1 | 4.01 | 7 | 65 | 48 | 60 | 4.50 | -74 | 8 | 05/12/2025 07:30 PM |
| 40414 | 16.1 | 3.97 | 14 | 67 | 48 | 60 | 4.50 | -71 | 8 | 05/12/2025 07:15 PM |
| 40413 | 16.1 | 4.03 | 0 | 69 | 47 | 62 | 4.50 | -73 | 8 | 05/12/2025 07:00 PM |
| 40412 | 16.0 | 4.01 | 10 | 70 | 48 | 63 | 4.50 | -71 | 8 | 05/12/2025 06:45 PM |
| 40411 | 16.1 | 3.96 | 0 | 69 | 50 | 61 | 5.10 | -73 | 7 | 05/12/2025 06:30 PM |
| 40410 | 16.1 | 3.96 | 0 | 73 | 48 | 64 | 5.10 | -71 | 7 | 05/12/2025 06:15 PM |
| 40409 | 16.1 | 3.96 | 0 | 75 | 47 | 67 | 5.10 | -73 | 7 | 05/12/2025 06:00 PM |
| 40408 | 16.1 | 3.96 | 0 | 76 | 47 | 68 | 5.10 | -72 | 7 | 05/12/2025 05:45 PM |
| 40407 | 16.1 | 3.96 | 0 | 78 | 46 | 69 | 5.10 | -73 | 8 | 05/12/2025 05:30 PM |
| 40406 | 16.2 | 4.01 | 0 | 78 | 45 | 72 | 5.10 | -71 | 8 | 05/12/2025 05:15 PM |
| 40405 | 16.1 | 3.99 | 0 | 79 | 44 | 71 | 5.10 | -74 | 7 | 05/12/2025 05:00 PM |
| 40404 | 16.1 | 3.96 | 0 | 79 | 44 | 70 | 5.10 | -71 | 7 | 05/12/2025 04:45 PM |
| 40403 | 16.1 | 3.96 | 0 | 80 | 43 | 71 | 5.10 | -74 | 8 | 05/12/2025 04:30 PM |
| 40402 | 16.1 | 3.96 | 0 | 79 | 43 | 72 | 5.10 | -74 | 7 | 05/12/2025 04:15 PM |